Mount Ida, AR

12:22 PM CST on February 12, 2016 (GMT -0600)
Mount Ida

Weather History for KMWT - September, 2012

Change the Weather History Date:

Sunday, September 2, 2012

  Actual Average (KHOT) Record (KHOT)
Temperature  
Mean Temperature 86 °F -  
Max Temperature 98 °F 91 °F 107 °F (2000)
Min Temperature 75 °F 67 °F 52 °F (1967)
Cooling Degree Days 21    
Growing Degree Days 36 (Base 50)    
Moisture  
Dew Point 72 °F    
Average Humidity 67    
Maximum Humidity 94    
Minimum Humidity 39    
Precipitation  
Precipitation 0.00 in - - ()
Sea Level Pressure  
Sea Level Pressure 29.87 in    
Wind  
Wind Speed 2 mph (NW)    
Max Wind Speed 8 mph    
Max Gust Speed -    
Visibility 10 miles    
Events      
Averages and records for this station are not official NWS values.
T = Trace of Precipitation, MM = Missing Value Source: NWS Daily Summary

Daily Weather History Graph

Daily Weather History Graph

Search for Another Location

Airport or City:

Trip Planner

Search our weather history database for the weather conditions in past years. The results will help you decide how hot, cold, wet, or windy it might be!

Date:

Astronomy

Sep. 02, 2012 Rise Set
Actual Time 6:48 AM CDT 7:38 PM CDT
Civil Twilight 6:22 AM CDT 8:04 PM CDT
Nautical Twilight 5:52 AM CDT 8:34 PM CDT
Astronomical Twilight 5:21 AM CDT 9:05 PM CDT
Moon 8:35 PM CDT (9/2) 8:49 AM CDT (9/2)
Length of Visible Light 13h 41m
Length of Day
12h 50m
Waning Gibbous, 95% of the Moon is Illuminated
Sep 2
Waning Gibbous
Sep 8
Last Quarter
Sep 15
New
Sep 22
First Quarter
Sep 29
Full

Hourly Weather History & Observations

Time (CDT) Temp. Heat Index Dew Point Humidity Pressure Visibility Wind Dir Wind Speed Gust Speed Precip Events Conditions
12:53 AM 75.0 °F - 73.0 °F 94% 29.91 in 9.0 mi Calm Calm - N/A   Partly Cloudy
1:53 AM 78.1 °F - 72.0 °F 81% 29.89 in 10.0 mi Calm Calm - N/A   Clear
2:53 AM 81.0 °F 84.9 °F 71.1 °F 72% 29.87 in 10.0 mi Variable 3.5 mph - N/A   Clear
3:53 AM 79.0 °F - 71.1 °F 77% 29.88 in 10.0 mi Calm Calm - N/A   Clear
4:53 AM 79.0 °F - 71.1 °F 77% 29.87 in 10.0 mi Variable 4.6 mph - N/A   Clear
5:53 AM 79.0 °F - 71.1 °F 77% 29.88 in 10.0 mi Variable 4.6 mph - N/A   Clear
6:53 AM 78.1 °F - 72.0 °F 81% 29.91 in 10.0 mi Calm Calm - N/A   Clear
7:53 AM 79.0 °F - 72.0 °F 79% 29.92 in 10.0 mi Variable 5.8 mph - N/A   Clear
8:53 AM 82.0 °F 87.4 °F 73.0 °F 74% 29.92 in 10.0 mi Variable 3.5 mph - N/A   Clear
9:53 AM 84.9 °F 90.7 °F 72.0 °F 65% 29.92 in 10.0 mi Variable 6.9 mph - N/A   Clear
10:53 AM 88.0 °F 95.6 °F 73.0 °F 61% 29.92 in 10.0 mi Calm Calm - N/A   Clear
11:53 AM 91.0 °F 98.2 °F 72.0 °F 53% 29.91 in 10.0 mi Variable 6.9 mph - N/A   Clear
12:53 PM 93.0 °F 101.9 °F 73.0 °F 52% 29.90 in 10.0 mi Variable 4.6 mph - N/A   Clear
1:53 PM 95.0 °F 101.3 °F 70.0 °F 44% 29.87 in 10.0 mi NW 8.1 mph - N/A   Clear
2:53 PM 96.1 °F 102.9 °F 70.0 °F 43% 29.84 in 10.0 mi Variable 5.8 mph - N/A   Clear
3:53 PM 97.0 °F 102.2 °F 68.0 °F 39% 29.83 in 10.0 mi Variable 5.8 mph - N/A   Clear
4:53 PM 96.1 °F 104.9 °F 72.0 °F 46% 29.82 in 10.0 mi Calm Calm - N/A   Clear
5:53 PM 91.0 °F 100.4 °F 73.9 °F 57% 29.82 in 10.0 mi Calm Calm - N/A   Clear
6:53 PM 87.1 °F 95.4 °F 73.9 °F 65% 29.82 in 10.0 mi Calm Calm - 0.00 in   Clear
7:53 PM 82.9 °F 90.2 °F 75.0 °F 77% 29.82 in 10.0 mi Calm Calm - N/A   Partly Cloudy
8:53 PM 81.0 °F 86.7 °F 75.0 °F 82% 29.83 in 10.0 mi Calm Calm - N/A   Partly Cloudy
9:53 PM 79.0 °F - 73.0 °F 82% 29.84 in 10.0 mi Calm Calm - N/A   Clear
10:53 PM 82.0 °F 86.3 °F 71.1 °F 69% 29.84 in 10.0 mi Calm Calm - N/A   Clear
11:53 PM 84.0 °F 87.8 °F 69.1 °F 61% 29.84 in 10.0 mi Calm Calm - N/A   Clear